Volver al catálogo

DELTA 2 R/B(1)

ActivoLEO
NORAD 25359·ROCKET BODY·🇺🇸 United States

Lanzado Jun 10, 1998 desde Cape Canaveral Space Force Station

Loading…

Próximos Pases (próximas 24 horas)

TLE

ActualizadoSource: Space-Track

Época: Sep 14, 2026, 06:56 UTC

1 25359U 98035B   26257.28895418  .00000108  00000-0  10722-4 0  9991
2 25359  26.3852 183.3861 0513008 322.1327 211.4002 12.94621215338208

Sigue DELTA 2 R/B(1) en tiempo real con AllMySat

Download on the App Store